TimeMST,TemperatureF,Dew PointF,Humidity,Sea Level PressureIn,VisibilityMPH,Wind Direction,Wind SpeedMPH,Gust SpeedMPH,PrecipitationIn,Events,Conditions,WindDirDegrees,DateUTC
12:04 AM,17.6,15.8,93,29.94,1.8,North,4.6,-,0.00,Snow,Light Snow,360,2012-12-31 07:04:00
12:25 AM,17.6,15.8,93,29.94,2.0,NNE,6.9,-,0.00,Snow,Light Snow,20,2012-12-31 07:25:00
12:36 AM,17.6,15.8,93,29.94,3.0,NNE,5.8,-,0.00,Snow,Light Snow,20,2012-12-31 07:36:00
12:53 AM,18.0,14.0,84,30.04,3.0,North,4.6,-,0.00,Snow,Light Snow,10,2012-12-31 07:53:00
1:02 AM,17.6,14.0,86,29.95,2.5,NNE,4.6,-,0.00,Snow,Light Snow,20,2012-12-31 08:02:00
1:26 AM,17.6,12.2,79,29.95,3.0,North,6.9,-,0.00,Snow,Light Snow,360,2012-12-31 08:26:00
1:36 AM,17.6,12.2,79,29.95,2.5,North,5.8,-,0.00,Snow,Light Snow,360,2012-12-31 08:36:00
1:53 AM,17.1,12.9,84,30.06,2.0,NNE,6.9,-,0.00,Snow,Light Snow,20,2012-12-31 08:53:00
2:17 AM,15.8,12.2,86,29.96,4.0,North,8.1,-,0.00,Snow,Light Snow,350,2012-12-31 09:17:00
2:31 AM,15.8,12.2,86,29.97,3.0,North,9.2,-,0.00,Snow,Light Snow,360,2012-12-31 09:31:00
2:53 AM,16.0,12.0,84,30.09,4.0,North,4.6,-,0.00,Snow,Light Snow,360,2012-12-31 09:53:00
3:27 AM,15.8,10.4,79,29.97,3.0,North,6.9,-,0.00,Snow,Light Snow,350,2012-12-31 10:27:00
3:36 AM,14.0,10.4,86,29.97,3.0,North,5.8,-,0.00,Snow,Light Snow,350,2012-12-31 10:36:00
3:53 AM,12.9,10.0,88,30.10,4.0,North,5.8,-,0.00,Snow,Light Snow,350,2012-12-31 10:53:00
4:43 AM,8.6,6.8,92,29.98,3.0,Calm,Calm,-,0.00,Snow,Light Snow,0,2012-12-31 11:43:00
4:53 AM,9.0,5.0,84,30.13,3.0,NE,3.5,-,0.00,Snow,Light Snow,40,2012-12-31 11:53:00
5:11 AM,10.4,6.8,85,29.98,4.0,ENE,5.8,-,0.00,Snow,Light Snow,70,2012-12-31 12:11:00
5:32 AM,12.2,8.6,85,29.98,2.5,NE,3.5,-,0.00,Snow,Light Snow,50,2012-12-31 12:32:00
5:40 AM,10.4,8.6,92,29.98,3.0,Calm,Calm,-,0.00,Snow,Light Snow,0,2012-12-31 12:40:00
5:53 AM,10.9,7.0,84,30.13,2.5,Calm,Calm,-,0.00,Snow,Light Snow,0,2012-12-31 12:53:00
6:07 AM,10.4,6.8,85,29.99,4.0,Calm,Calm,-,0.00,Snow,Light Snow,0,2012-12-31 13:07:00
6:53 AM,6.1,1.0,80,30.17,5.0,Calm,Calm,-,0.00,,Haze,0,2012-12-31 13:53:00
7:41 AM,3.2,-0.4,85,30.02,5.0,SE,4.6,-,N/A,,Mostly Cloudy,130,2012-12-31 14:41:00
7:53 AM,3.0,-0.9,84,30.20,5.0,SE,5.8,-,N/A,,Scattered Clouds,130,2012-12-31 14:53:00
8:12 AM,3.2,-2.2,78,30.03,7.0,Calm,Calm,-,N/A,,Partly Cloudy,0,2012-12-31 15:12:00
8:33 AM,3.2,-0.4,85,30.05,5.0,Calm,Calm,-,N/A,,Mostly Cloudy,0,2012-12-31 15:33:00
8:53 AM,3.9,1.0,88,30.25,6.0,Calm,Calm,-,N/A,,Mostly Cloudy,0,2012-12-31 15:53:00
9:04 AM,5.0,1.4,85,30.06,8.0,ESE,5.8,-,N/A,,Scattered Clouds,110,2012-12-31 16:04:00
9:53 AM,10.0,8.1,92,30.24,6.0,Calm,Calm,-,N/A,,Clear,0,2012-12-31 16:53:00
10:53 AM,15.1,10.0,80,30.25,10.0,Calm,Calm,-,N/A,,Clear,0,2012-12-31 17:53:00
11:53 AM,21.0,14.0,74,30.19,10.0,NNW,4.6,-,N/A,,Clear,340,2012-12-31 18:53:00
12:53 PM,21.0,12.0,68,30.20,10.0,ENE,5.8,-,N/A,,Clear,60,2012-12-31 19:53:00
1:53 PM,23.0,12.0,63,30.18,10.0,Calm,Calm,-,N/A,,Partly Cloudy,0,2012-12-31 20:53:00
2:53 PM,23.0,12.0,63,30.17,10.0,Calm,Calm,-,N/A,,Scattered Clouds,0,2012-12-31 21:53:00
3:53 PM,23.0,12.0,63,30.21,10.0,North,4.6,-,N/A,,Scattered Clouds,10,2012-12-31 22:53:00
4:53 PM,21.0,10.9,65,30.24,10.0,NE,3.5,-,N/A,,Partly Cloudy,50,2012-12-31 23:53:00
6:53 PM,10.0,6.1,84,30.33,10.0,Calm,Calm,-,N/A,,Clear,0,2013-01-01 01:53:00
7:53 PM,6.1,1.9,83,30.38,10.0,WNW,5.8,-,N/A,,Clear,300,2013-01-01 02:53:00
8:53 PM,6.1,1.9,83,30.39,10.0,Calm,Calm,-,N/A,,Clear,0,2013-01-01 03:53:00
9:53 PM,1.9,-2.0,83,30.40,10.0,Calm,Calm,-,N/A,,Clear,0,2013-01-01 04:53:00
10:53 PM,1.9,-0.9,88,30.39,10.0,Calm,Calm,-,N/A,,Clear,0,2013-01-01 05:53:00
11:53 PM,1.9,-2.9,80,30.38,9.0,Calm,Calm,-,N/A,,Clear,0,2013-01-01 06:53:00